[[{"header":{"parameterUnit":"m.s-1","parameterCategory":1,"la1":30.2991,"la2":30.254,"lo1":-89.0895,"lo2":-89.0444,"dy":0.0017,"dx":0.0017,"nx":28,"ny":28,"refTime":"2025-03-24T09:00:00:Z","depth":0,"parameterNumber":2,"parameterNumberName":"U-component_of_WINDS"},"data":[0,0,0,0,0,0,0,0,0,0,0,0,0,0,0,0,0,0,0,0,0,0,0,0,0,0,0,0,0,0,0,0,0,0,0,0,0,0,0,0,0,0,0,0,0,0,0,0,0,0,0,0,0,0,0,0,0,0,2.0693,2.0695,0,2.0836,2.0838,2.0839,2.0836,2.0834,2.0832,2.083,2.098,2.0986,2.0991,0,0,0,0,0,0,0,0,0,0,0,0,0,2.042,2.0425,2.0693,2.0695,2.0697,2.0836,2.0838,2.084,2.0836,2.0834,2.0832,2.0829,2.0978,2.0985,2.0992,0,0,0,0,0,0,0,0,0,0,0,0,0,2.0548,2.0427,2.0693,2.0712,2.0715,2.0835,2.0838,2.084,2.0837,2.0834,2.0831,2.0828,2.0976,2.0984,2.0993,2.1105,0,0,2.1019,2.1023,0,0,0,0,0,0,0,0,2.0541,2.0558,2.0707,2.0711,2.0714,2.0815,2.0796,2.0929,2.0838,2.0791,2.083,2.0827,2.0928,2.094,2.0974,2.1112,2.1119,2.102,2.1026,2.1029,2.1032,0,0,0,0,0,0,0,2.0532,2.0552,2.075,2.0709,2.0714,2.0714,2.0729,2.0821,2.0874,2.0795,2.0795,2.0811,2.0929,2.0965,2.0977,2.1121,2.102,2.1028,2.1033,2.1036,2.1357,2.136,0,0,0,0,0,0,2.0519,2.0545,2.0745,2.0754,2.0619,2.0721,2.0738,2.0786,2.0873,2.0883,2.0814,2.0811,2.0952,2.0967,2.0982,2.1118,2.1029,2.1037,2.1042,2.1354,2.1358,2.1362,0,0,0,0,0,0,2.0513,2.0537,2.074,2.065,2.0675,2.0729,2.0783,2.079,2.0826,2.0887,2.0897,2.0841,2.095,2.097,2.1074,2.1124,2.1041,2.1049,2.135,2.1355,2.136,2.1392,0,0,0,0,0,0,2.0505,2.0535,2.0578,2.0651,2.068,2.0828,2.0786,2.0795,2.0841,2.0838,2.0915,2.0925,2.0949,2.1061,2.1083,2.1134,2.1056,2.1346,2.1352,2.1358,2.1387,2.1398,2.1407,0,0,0,0,0,2.0496,2.0582,2.058,2.0604,2.0735,2.0831,2.0848,2.0873,2.0845,2.0888,2.0927,2.0923,2.1115,2.1072,2.1096,2.1151,2.1343,2.1351,2.1358,2.1382,2.1395,2.1406,0,0,0,0,0,0,2.0515,2.0592,2.059,2.0703,2.076,2.083,2.0886,2.0886,2.0954,2.0949,2.0978,2.0995,2.1099,2.1136,2.1086,2.1263,2.1225,2.1238,2.1236,2.1249,2.1258,2.1247,2.1063,0,0,0,0,0,2.0532,2.0603,2.0667,2.076,2.0789,2.0833,2.0876,2.089,2.0951,2.0976,2.1022,2.1083,2.1156,2.1205,2.1276,2.1392,2.1408,2.1442,2.1452,2.1459,2.147,2.1533,2.1548,2.1386,2.1386,2.1386,0,0,2.0569,2.062,2.0663,2.0765,2.0812,2.0885,2.0853,2.0933,2.0988,2.0988,2.1088,2.1125,2.1194,2.1304,2.1355,2.1338,2.1518,2.1469,2.1475,2.1481,2.1542,2.1557,2.1571,2.1391,2.139,2.1389,0,0,2.0673,2.0719,2.0801,2.0847,2.0917,2.0945,2.0965,2.1035,2.1058,2.1159,2.1161,2.1227,2.1354,2.1402,2.1444,2.1565,2.1563,2.1587,2.1639,2.17,2.1713,2.1724,2.1767,2.1782,2.1598,2.1598,2.1598,0,2.071,2.082,2.0843,2.0923,2.0967,2.0969,2.1053,2.1097,2.1187,2.1218,2.1197,2.1355,2.1402,2.1523,2.1552,2.1586,2.1609,2.1579,2.1709,2.1721,2.1732,2.1773,2.1789,2.16,2.16,2.16,2.16,0,2.0862,2.0938,2.0996,2.1081,2.1132,2.1213,2.1249,2.1298,2.1308,2.1338,2.144,2.1496,2.1578,2.1608,2.1619,2.1731,2.1718,2.1703,2.1665,2.1749,2.1788,2.1804,2.1604,2.1603,2.1602,2.1602,0,0,2.0983,2.1078,2.1099,2.1137,2.1214,2.1273,2.1354,2.1433,2.1474,2.1536,2.1605,2.1711,2.1697,2.1744,2.176,2.1814,2.1905,2.1792,2.1794,2.181,2.203,2.204,2.2058,2.1904,2.1907,2.1909,2.2024,0,2.1095,2.1237,2.126,2.1385,2.1455,2.1458,2.1528,2.1583,2.1613,2.1678,2.1712,2.1786,2.1762,2.1791,2.1844,2.1882,2.1949,2.1874,2.1968,2.1971,2.195,2.2079,2.209,2.2196,2.2039,2.2042,2.2044,0,2.1244,2.1308,2.144,2.1505,2.1535,2.1598,2.1671,2.1733,2.1795,2.1813,2.1865,2.1874,2.1958,2.1917,2.2033,2.1981,2.2021,2.2046,2.205,2.206,2.2012,2.2091,2.223,2.2246,2.2068,2.2066,2.2065,0,2.1318,2.1437,2.1531,2.1564,2.1643,2.1686,2.1722,2.178,2.1826,2.189,2.192,2.1994,2.2035,2.2092,2.2121,2.2088,2.2235,2.2196,2.2253,2.2252,2.2283,2.2281,2.243,2.231,2.231,2.2309,2.2309,0,2.144,2.1521,2.1565,2.1623,2.1713,2.1738,2.1827,2.1861,2.1913,2.1978,2.1985,2.2046,2.208,2.2146,2.217,2.2262,2.228,2.2298,2.2303,2.2297,2.2294,2.2323,2.2316,2.2313,2.2313,2.2312,2.2311,0,2.1539,2.1572,2.1674,2.1739,2.1758,2.1821,2.1878,2.1934,2.1963,2.2045,2.2066,2.2112,2.219,2.2224,2.2321,2.2336,2.2442,2.2442,2.242,2.2422,2.2476,2.247,2.2649,2.2673,2.2537,2.2538,2.2539,0,2.1614,2.1676,2.1747,2.179,2.1826,2.1896,2.1941,2.1969,2.2016,2.209,2.2138,2.2215,2.2278,2.2403,2.2446,2.2519,2.2521,2.2578,2.2532,2.2524,2.2521,2.2517,2.2522,2.2587,2.2588,2.2589,2.259,0,2.1744,2.1757,2.1822,2.1893,2.1947,2.2004,2.2061,2.2096,2.2132,2.2185,2.2263,2.2312,2.2409,2.2486,2.2562,2.2599,2.2601,2.2604,2.2621,2.2615,2.26,2.2608,2.2442,2.26,2.2599,2.2598,2.2598,2.2597,2.1833,2.1887,2.1945,2.2017,2.2062,2.2114,2.2169,2.2205,2.2271,2.2351,2.2363,2.2447,2.2507,2.2608,2.2648,2.2714,2.27,2.2725,2.2731,2.2736,2.2739,2.2589,2.2728,2.2728,2.2728,2.2728,2.2727,0,2.1962,2.2,2.2066,2.2143,2.2199,2.2195,2.2256,2.2304,2.2377,2.2432,2.2493,2.2583,2.2657,2.2706,2.2781,2.2824,2.2827,2.2843,2.284,2.2848,2.2748,2.2725,2.2839,2.2839,2.2839,2.2839,2.2839,2.2839,2.2037,2.2127,2.2147,2.226,2.2297,2.2378,2.2413,2.2461,2.2505,2.2604,2.2665,2.2696,2.2748,2.2826,2.2894,2.2906,2.2933,2.295,2.2962,2.2867,2.2855,2.2844,2.2823,2.2956,2.2956,2.3056,2.3057,2.3058]},{"header":{"parameterUnit":"m.s-1","parameterCategory":1,"la1":30.2991,"la2":30.254,"lo1":-89.0895,"lo2":-89.0444,"dy":0.0017,"dx":0.0017,"nx":28,"ny":28,"refTime":"2025-03-24T09:00:00:Z","depth":0,"parameterNumber":3,"parameterNumberName":"V-component_of_WINDS"},"data":[0,0,0,0,0,0,0,0,0,0,0,0,0,0,0,0,0,0,0,0,0,0,0,0,0,0,0,0,0,0,0,0,0,0,0,0,0,0,0,0,0,0,0,0,0,0,0,0,0,0,0,0,0,0,0,0,0,0,2.5359,2.536,0,2.5462,2.5463,2.5464,2.5446,2.5444,2.5442,2.544,2.5541,2.5545,2.5549,0,0,0,0,0,0,0,0,0,0,0,0,0,2.514,2.5144,2.5359,2.536,2.5361,2.5462,2.5463,2.5465,2.5446,2.5444,2.5441,2.5439,2.5539,2.5544,2.555,0,0,0,0,0,0,0,0,0,0,0,0,0,2.5238,2.5145,2.5358,2.5364,2.5366,2.5462,2.5463,2.5465,2.5446,2.5444,2.5441,2.5438,2.5537,2.5544,2.555,2.5645,0,0,2.557,2.5573,0,0,0,0,0,0,0,0,2.5232,2.5246,2.5362,2.5364,2.5366,2.5438,2.5423,2.5525,2.5447,2.5416,2.544,2.5437,2.5508,2.5517,2.5542,2.565,2.5654,2.5571,2.5575,2.5578,2.558,0,0,0,0,0,0,0,2.5226,2.5241,2.5399,2.5364,2.5366,2.536,2.5371,2.5442,2.5476,2.5418,2.5417,2.543,2.5509,2.5536,2.5545,2.5656,2.5571,2.5577,2.5581,2.5583,2.5847,2.585,0,0,0,0,0,0,2.5218,2.5236,2.5396,2.5402,2.5291,2.5366,2.5378,2.5418,2.5475,2.5481,2.5432,2.5428,2.5526,2.5537,2.5548,2.5664,2.5578,2.5584,2.5588,2.5844,2.5848,2.5851,0,0,0,0,0,0,2.5213,2.5232,2.5392,2.5319,2.5339,2.5373,2.5417,2.5421,2.5448,2.5486,2.5491,2.5454,2.5524,2.5539,2.5622,2.5667,2.5587,2.5593,2.584,2.5845,2.5849,2.5896,0,0,0,0,0,0,2.5207,2.5231,2.5269,2.532,2.5343,2.5466,2.542,2.5425,2.546,2.5457,2.5508,2.5513,2.5523,2.5612,2.5628,2.5675,2.5598,2.5836,2.5842,2.5848,2.5891,2.5902,2.5911,0,0,0,0,0,2.5199,2.5276,2.5271,2.529,2.5391,2.5468,2.5481,2.5493,2.5464,2.5502,2.5526,2.5512,2.5659,2.5621,2.5639,2.5688,2.5833,2.5841,2.5847,2.5886,2.59,2.5911,0,0,0,0,0,0,2.5227,2.5283,2.5277,2.5374,2.5417,2.5465,2.5513,2.5507,2.5557,2.5552,2.5562,2.5573,2.5658,2.5681,2.5637,2.5783,2.5742,2.5753,2.5765,2.5779,2.5789,2.5782,2.5603,0,0,0,0,0,2.5245,2.5305,2.535,2.543,2.5452,2.5479,2.5513,2.5518,2.5562,2.558,2.561,2.5652,2.5707,2.5744,2.5797,2.5893,2.5904,2.5936,2.5946,2.5954,2.5964,2.6017,2.6032,2.5874,2.5874,2.5873,0,0,2.5282,2.532,2.5356,2.5437,2.5471,2.5531,2.5494,2.556,2.5604,2.5589,2.5671,2.5694,2.5741,2.5831,2.5872,2.5853,2.601,2.5963,2.597,2.5975,2.6026,2.6041,2.6054,2.5878,2.5877,2.5877,0,0,2.538,2.5415,2.5486,2.5521,2.5574,2.5591,2.5608,2.5658,2.5673,2.5755,2.5745,2.5797,2.5893,2.5928,2.5958,2.6069,2.6058,2.6085,2.614,2.6191,2.6204,2.6215,2.6255,2.6269,2.6094,2.6095,2.6095,0,2.5418,2.5511,2.5523,2.5591,2.5626,2.5617,2.5689,2.5721,2.5788,2.5812,2.5789,2.591,2.5941,2.6039,2.6067,2.6091,2.611,2.608,2.6201,2.6212,2.6223,2.6261,2.6277,2.6098,2.6097,2.6097,2.6097,0,2.5556,2.5621,2.5672,2.5739,2.578,2.5849,2.587,2.5909,2.5911,2.593,2.6013,2.605,2.6111,2.6134,2.6135,2.6233,2.6219,2.6199,2.6158,2.6241,2.6277,2.6292,2.6102,2.6101,2.61,2.6099,0,0,2.5676,2.5749,2.5768,2.5799,2.5856,2.5905,2.5972,2.6034,2.6068,2.6114,2.6171,2.6252,2.6234,2.6268,2.6272,2.6317,2.6404,2.6291,2.6292,2.6312,2.6514,2.6531,2.6548,2.6397,2.64,2.6402,2.6511,0,2.5781,2.5904,2.5916,2.6025,2.6085,2.6076,2.6135,2.6176,2.6195,2.6247,2.6267,2.6326,2.6296,2.6317,2.6361,2.6384,2.6445,2.6376,2.6449,2.6452,2.644,2.6567,2.6584,2.6685,2.6525,2.6528,2.6529,0,2.5919,2.5972,2.6087,2.6137,2.6162,2.6216,2.6273,2.6323,2.6368,2.6379,2.6418,2.6416,2.6485,2.6441,2.6535,2.6488,2.6518,2.6533,2.6538,2.6546,2.6497,2.6579,2.6718,2.6734,2.6552,2.655,2.6548,0,2.5997,2.6095,2.6178,2.6204,2.6263,2.6301,2.6327,2.637,2.6406,2.6456,2.6479,2.6535,2.6566,2.6608,2.6621,2.6588,2.6715,2.6672,2.6726,2.6726,2.6754,2.6752,2.6901,2.6771,2.6771,2.6771,2.6771,0,2.6113,2.6184,2.6214,2.6264,2.6344,2.6356,2.6434,2.6457,2.6496,2.655,2.6544,2.6595,2.6609,2.6661,2.6671,2.6748,2.6762,2.6772,2.6774,2.6773,2.6772,2.6794,2.6788,2.6775,2.6774,2.6773,2.6772,0,2.6213,2.6236,2.6325,2.6375,2.6389,2.6445,2.6486,2.6535,2.6553,2.6621,2.6638,2.6666,2.6728,2.6745,2.6818,2.6825,2.6916,2.691,2.6901,2.6902,2.6955,2.695,2.7124,2.7147,2.7001,2.7003,2.7004,0,2.6287,2.6342,2.6398,2.6435,2.6463,2.6522,2.656,2.6574,2.6613,2.6669,2.671,2.6771,2.6821,2.692,2.6946,2.7001,2.6998,2.7055,2.7006,2.7004,2.7,2.6998,2.7003,2.7064,2.7066,2.7067,2.7068,0,2.6415,2.6424,2.6479,2.6539,2.6585,2.6632,2.6677,2.6707,2.6727,2.6771,2.6835,2.6874,2.6949,2.701,2.7067,2.7091,2.7083,2.7083,2.7099,2.71,2.7093,2.7098,2.6928,2.708,2.7078,2.7078,2.7077,2.7077,2.6505,2.6554,2.6602,2.6664,2.6699,2.6742,2.679,2.6815,2.687,2.6934,2.6938,2.7008,2.705,2.7126,2.7154,2.7207,2.719,2.7212,2.7218,2.7224,2.7229,2.7083,2.7217,2.7217,2.7217,2.7216,2.7216,0,2.6634,2.6665,2.6722,2.6786,2.6835,2.6824,2.6874,2.6915,2.6977,2.7019,2.7069,2.7142,2.7201,2.7232,2.729,2.7327,2.7324,2.7341,2.7339,2.7345,2.7241,2.7222,2.7342,2.7342,2.7342,2.7342,2.7342,2.7342,2.6707,2.679,2.6804,2.6904,2.6933,2.7003,2.7033,2.7071,2.7105,2.7188,2.7238,2.7258,2.7295,2.7356,2.7409,2.7417,2.7439,2.7458,2.7464,2.7365,2.7353,2.734,2.7323,2.7463,2.7463,2.7564,2.7565,2.7566]}]]